Date String (YYYY-MM-DD hh:mm:ss) UTC,Instrument flags,Ambient pressure (hPa),Sample flow (lpm),Bypass flow (lpm),Sample temperature (°C),Ambient temperature (°C),ASC tube jacket temperature (°C),LED temperature (°C),Box temperature (°C),Sample RH (%),Span deviation,Mass concentration (μg/m³),Mass concentration (μg/m³),Mass concentration (μg/m³)
DateTimeUTC,F1_M11,P_M11,Q1_M11,Q2_M11,T1_M11,T2_M11,T3_M11,T4_M11,T5_M11,U1_M11,ZSPAN_M11,X0_M11,X2_M11,X1_M11
2022-08-01 19:00:00,,0828.7,5.00,0.00,29.3,27.9,00.0,38.0,31.3,31.5,0000.0,0020.14,0007.83,0007.05
2022-08-01 19:01:00,,0828.7,5.00,0.00,29.3,27.4,00.0,38.0,31.1,32.4,0000.0,0018.80,0007.85,0007.06
2022-08-01 19:02:00,,0829.1,5.00,0.00,29.3,27.1,00.0,37.9,31.1,30.5,0000.0,0019.08,0007.87,0007.07
2022-08-01 19:03:00,,0829.2,5.01,0.00,29.2,27.2,00.0,37.9,31.0,31.0,0001.7,0019.08,0007.86,0007.07
2022-08-01 19:04:00,,0828.9,5.00,0.00,29.2,27.3,00.0,37.9,31.0,30.7,0003.1,0018.96,0007.91,0007.08
2022-08-01 19:05:00,,0828.7,5.00,0.00,29.2,27.5,00.0,37.9,31.0,30.4,0003.0,0018.96,0007.94,0007.09
2022-08-01 19:06:00,,0828.7,4.99,0.00,29.2,27.7,00.0,37.9,31.1,30.6,0002.5,0018.06,0007.95,0007.09
2022-08-01 19:07:00,,0828.8,4.99,0.00,29.2,27.9,00.0,38.0,31.2,30.7,0003.2,0017.51,0007.92,0007.09
2022-08-01 19:08:00,,0828.8,5.01,0.00,29.3,28.1,00.0,38.0,31.3,31.7,0002.9,0016.33,0007.90,0007.08
2022-08-01 19:09:00,,0828.8,5.00,0.00,29.3,28.2,00.0,38.0,31.3,32.5,0000.9,0015.92,0007.89,0007.08
2022-08-01 19:10:00,,0829.0,4.99,0.00,29.3,27.7,00.0,38.0,31.2,31.6,0000.7,0016.41,0007.88,0007.10
2022-08-01 19:11:00,,0828.9,5.00,0.00,29.3,27.3,00.0,38.0,31.1,31.0,0001.5,0015.97,0007.87,0007.09
2022-08-01 19:12:00,,0828.9,5.00,0.00,29.3,27.1,00.0,38.0,31.1,31.0,0003.2,0015.22,0007.82,0007.08
2022-08-01 19:13:00,,0829.1,5.00,0.00,29.2,27.2,00.0,38.0,30.9,29.2,0003.2,0014.56,0007.75,0007.06
2022-08-01 19:14:00,,0829.0,5.01,0.00,29.2,27.4,00.0,37.9,31.0,28.4,0001.6,0014.79,0007.74,0007.05
2022-08-01 19:15:00,,0829.0,4.99,0.00,29.2,27.6,00.0,38.0,31.1,27.7,0002.1,0015.00,0007.64,0007.03
2022-08-01 19:16:00,,0828.9,5.00,0.00,29.2,27.8,00.0,38.0,31.2,27.8,0000.0,0015.24,0007.60,0007.00
2022-08-01 19:17:00,,0828.9,5.01,0.00,29.3,28.0,00.0,38.0,31.2,27.0,0000.0,0015.06,0007.56,0006.97
2022-08-01 19:18:00,,0828.7,5.00,0.00,29.3,28.2,00.0,38.0,31.3,27.4,0000.0,0015.24,0007.52,0006.94
2022-08-01 19:19:00,,0828.5,5.00,0.00,29.4,27.8,00.0,38.0,31.2,27.1,0000.0,0015.88,0007.47,0006.91
2022-08-01 19:20:00,,0828.5,5.00,0.00,29.3,27.3,00.0,38.0,31.1,28.2,0000.0,0016.02,0007.43,0006.86
2022-08-01 19:21:00,,0828.5,5.00,0.00,29.3,27.2,00.0,38.0,31.1,27.1,0000.0,0015.54,0007.36,0006.80
2022-08-01 19:22:00,,0828.5,5.00,0.00,29.3,27.3,00.0,38.0,31.0,25.4,0000.0,0015.00,0007.31,0006.75
2022-08-01 19:23:00,,0828.5,5.00,0.00,29.2,27.5,00.0,38.0,31.0,25.5,0000.0,0014.93,0007.27,0006.70
2022-08-01 19:24:00,,0828.5,4.99,0.00,29.3,27.7,00.0,38.0,31.1,25.7,0000.0,0015.30,0007.24,0006.66
2022-08-01 19:25:00,,0828.5,5.00,0.00,29.3,27.9,00.0,38.0,31.2,25.9,0000.0,0015.28,0007.20,0006.62
2022-08-01 19:26:00,,0828.5,5.00,0.00,29.3,28.1,00.0,38.0,31.3,26.1,0000.0,0015.66,0007.23,0006.59
2022-08-01 19:27:00,,0828.5,5.00,0.00,29.4,28.3,00.0,38.0,31.3,25.5,0000.0,0015.22,0007.22,0006.59
2022-08-01 19:28:00,,0828.5,5.00,0.00,29.4,28.2,00.0,38.0,31.4,25.7,0000.0,0015.49,0007.24,0006.60
2022-08-01 19:29:00,,0828.5,5.00,0.00,29.4,27.7,00.0,38.0,31.2,26.0,0000.0,0015.78,0007.27,0006.60
2022-08-01 19:30:00,,0828.4,5.00,0.00,29.4,27.4,00.0,38.0,31.2,25.3,0000.0,0014.40,0007.30,0006.62
2022-08-01 19:31:00,,0828.4,5.00,0.00,29.3,27.4,00.0,38.0,31.1,25.3,0000.0,0014.24,0007.30,0006.64
2022-08-01 19:32:00,,0828.3,4.99,0.00,29.3,27.5,00.0,38.0,31.1,26.1,0000.0,0013.97,0007.29,0006.65
2022-08-01 19:33:00,,0828.4,4.99,0.00,29.3,27.7,00.0,38.0,31.1,26.6,0000.0,0013.39,0007.26,0006.66
2022-08-01 19:34:00,,0828.3,5.01,0.00,29.3,27.9,00.0,38.0,31.2,26.6,0000.0,0013.40,0007.28,0006.69
2022-08-01 19:35:00,,0828.3,5.00,0.00,29.4,28.1,00.0,38.0,31.3,26.7,0000.0,0013.23,0007.38,0006.71
2022-08-01 19:36:00,,0828.3,5.00,0.00,29.4,28.2,00.0,38.1,31.3,26.5,0000.4,0013.98,0007.45,0006.74
2022-08-01 19:37:00,,0828.3,4.99,0.00,29.4,27.9,00.0,38.1,31.3,26.0,0000.0,0014.04,0007.49,0006.76
2022-08-01 19:38:00,,0828.3,5.01,0.00,29.4,27.3,00.0,38.0,31.2,25.5,0000.2,0014.23,0007.50,0006.76
2022-08-01 19:39:00,,0828.2,4.99,0.00,29.3,27.2,00.0,38.0,31.2,25.8,0001.7,0014.91,0007.51,0006.75
2022-08-01 19:40:00,,0828.2,5.02,0.00,29.3,27.3,00.0,38.0,31.1,26.5,0001.7,0015.02,0007.51,0006.77
2022-08-01 19:41:00,,0828.2,5.00,0.00,29.3,27.5,00.0,38.0,31.1,26.7,0001.9,0014.99,0007.50,0006.77
2022-08-01 19:42:00,,0828.2,4.99,0.00,29.3,27.7,00.0,38.0,31.1,27.0,0001.8,0015.20,0007.51,0006.76
2022-08-01 19:43:00,,0828.2,5.00,0.00,29.3,27.9,00.0,38.0,31.2,26.7,0000.0,0015.30,0007.51,0006.76
2022-08-01 19:44:00,,0828.2,5.00,0.00,29.3,28.1,00.0,38.0,31.3,27.3,0000.0,0015.37,0007.51,0006.77
2022-08-01 19:45:00,,0828.3,4.99,0.00,29.4,28.3,00.0,38.1,31.3,26.8,0000.0,0015.52,0007.49,0006.76
2022-08-01 19:46:00,,0828.2,5.00,0.00,29.4,28.3,00.0,38.1,31.4,27.1,0000.0,0015.21,0007.42,0006.77
2022-08-01 19:47:00,,0828.2,5.00,0.00,29.4,27.8,00.0,38.1,31.2,27.3,0000.0,0013.99,0007.38,0006.79
2022-08-01 19:48:00,,0828.1,5.00,0.00,29.4,27.3,00.0,38.0,31.2,27.6,0000.0,0013.44,0007.35,0006.81
2022-08-01 19:49:00,,0828.1,5.00,0.00,29.4,27.3,00.0,38.0,31.2,27.4,0000.0,0013.12,0007.36,0006.83
2022-08-01 19:50:00,,0828.2,5.01,0.00,29.3,27.4,00.0,38.0,31.1,24.8,0000.0,0012.84,0007.33,0006.83
2022-08-01 19:51:00,,0828.1,5.00,0.00,29.3,27.6,00.0,38.0,31.1,24.0,0000.0,0012.40,0007.29,0006.82
2022-08-01 19:52:00,,0828.1,5.00,0.00,29.3,27.8,00.0,38.0,31.2,25.1,0000.0,0012.37,0007.27,0006.80
2022-08-01 19:53:00,,0828.1,5.00,0.00,29.4,28.0,00.0,38.1,31.3,26.4,0000.0,0012.39,0007.27,0006.80
2022-08-01 19:54:00,,0828.1,5.00,0.00,29.4,28.2,00.0,38.1,31.4,27.9,0000.0,0012.39,0007.27,0006.80
2022-08-01 19:55:00,,0828.1,5.00,0.00,29.4,28.0,00.0,38.1,31.3,28.0,0000.0,0012.40,0007.26,0006.80
2022-08-01 19:56:00,,0828.1,5.04,0.00,29.4,27.5,00.0,38.1,31.2,26.9,0000.0,0012.51,0007.26,0006.81
2022-08-01 19:57:00,,0828.1,5.00,0.00,29.4,27.3,00.0,38.0,31.2,26.6,0000.0,0012.95,0007.28,0006.82
2022-08-01 19:58:00,,0828.1,4.99,0.00,29.3,27.3,00.0,38.0,31.1,26.9,0000.0,0013.30,0007.31,0006.84
2022-08-01 19:59:00,,0828.1,5.00,0.00,29.3,27.5,00.0,38.0,31.1,26.6,0000.0,0013.37,0007.34,0006.86
